Home   Weather   Zwolle   Past weeks

Flag for Netherlands Past Weather in Zwolle, Netherlands — Yesterday and Last 2 Weeks

52 °F

Sprinkles. Scattered clouds.

Feels Like: 49 °F
Forecast: 44 / 53 °F
Wind: 8 mph from North

Location: Amsterdam Schiphol Airport

Current Time: Oct 21, 2016 at 5:06:02 PM

Latest Report: Oct 21, 2016 at 4:25 PM

Visibility: 6 mi

Pressure: 29.98 "Hg

Humidity: 82%

Dew Point: 46 °F

Location of ZwolleLocation

Past Weather in Zwolle — Graph


Zwolle Temperature Yesterday

Maximum temperature yesterday: 55 °F (at 11:55 AM)
Minimum temperature yesterday: 45 °F (at 6:55 PM)
Average temperature yesterday: 50 °F

High & Low Weather Summary for the Past Weeks

High66 °F (Oct 16, 2:55 PM)100% (Oct 9, 1:25 AM)30.33 "Hg (Oct 9, 1:25 AM)
Low36 °F (Oct 21, 7:25 AM)48% (Oct 8, 2:25 PM)29.65 "Hg (Oct 15, 1:25 AM)
Average51 °F84%30.07 "Hg
* Reported Oct 6 3:25 PM — Oct 21 3:55 PM, Zwolle, Weather by CustomWeather, © 2016

Note: Actual official high and low records may vary slightly from our data, if they occured in-between our weather recording intervals... More about our weather records


Zwolle Weather History for the Previous 24 Hours

Scroll right to see more
Time TempWeatherWind HumidityBarometerVisibility
3:55 PM
Fri, Oct 21
54 °FSprinkles. Scattered clouds.12 mph77%29.98 "Hg6 mi
3:25 PM55 °FScattered showers. Passing clouds.9 mph63%29.98 "HgN/A
2:55 PM57 °FPassing clouds.7 mph63%29.98 "HgN/A
2:25 PM55 °FPassing clouds.8 mph63%29.98 "HgN/A
1:55 PM54 °FPassing clouds.7 mph77%30.01 "HgN/A
1:25 PM54 °FPassing clouds.5 mph72%30.01 "HgN/A
12:55 PM54 °FPassing clouds.3 mph77%30.01 "HgN/A
12:25 PM52 °FSunny.2 mph82%30.01 "Hg10 mi
11:55 AM52 °FPassing clouds.2 mph77%30.01 "HgN/A
11:25 AM50 °FPassing clouds.1 mph88%30.01 "Hg6 mi
10:55 AM48 °FClear.1 mph87%30.01 "Hg5 mi
10:25 AM45 °FPassing clouds.1 mph93%30.01 "Hg5 mi
9:55 AM43 °FClear.No wind100%30.01 "Hg4 mi
9:25 AM41 °FClear.1 mph100%30.01 "Hg4 mi
8:55 AM39 °FFog.5 mph100%30.01 "Hg4 mi
8:25 AM37 °FFog.1 mph100%30.01 "Hg4 mi
7:55 AM37 °FLight fog.1 mph100%30.01 "Hg4 mi
7:25 AM36 °FFog.1 mph100%30.01 "Hg5 mi
6:55 AM37 °FFog.1 mph100%30.01 "Hg5 mi
6:25 AM37 °FFog.2 mph100%30.01 "Hg4 mi
5:55 AM37 °FFog.1 mph93%30.01 "Hg4 mi
5:25 AM37 °FFog.3 mph100%30.01 "Hg4 mi
4:55 AM39 °FFog.3 mph100%30.01 "Hg3 mi
4:25 AM39 °FClear.1 mph100%30.01 "Hg4 mi
3:55 AM39 °FClear.2 mph100%30.01 "Hg4 mi
3:25 AM41 °FClear.2 mph100%30.01 "Hg4 mi
2:55 AM43 °FClear.3 mph100%30.01 "Hg6 mi
1:55 AM45 °FPassing clouds.7 mph93%30.01 "HgN/A
1:25 AM45 °FPassing clouds.6 mph93%30.01 "HgN/A
12:55 AM45 °FPassing clouds.5 mph93%30.01 "HgN/A
12:25 AM45 °FClear.6 mph93%30.01 "Hg10 mi
11:55 PM
Thu, Oct 20
46 °FClear.5 mph87%30.01 "Hg10 mi
11:25 PM46 °FClear.6 mph87%30.01 "Hg10 mi
10:55 PM48 °FPassing clouds.6 mph87%30.01 "HgN/A
10:25 PM48 °FClear.6 mph87%29.98 "Hg10 mi
9:55 PM45 °FClear.6 mph93%29.98 "Hg10 mi
9:25 PM46 °FClear.7 mph93%29.98 "Hg10 mi
8:55 PM46 °FClear.6 mph93%29.98 "Hg10 mi
8:25 PM45 °FClear.7 mph100%29.98 "Hg10 mi
7:55 PM45 °FClear.6 mph93%29.98 "Hg10 mi
7:25 PM45 °FClear.6 mph93%29.98 "Hg10 mi
6:55 PM45 °FClear.5 mph93%29.98 "Hg10 mi
6:25 PM48 °FPassing clouds.3 mph87%29.98 "HgN/A
5:55 PM48 °FPassing clouds.6 mph87%29.98 "HgN/A
5:25 PM50 °FPassing clouds.10 mph82%29.95 "HgN/A
Weather by CustomWeather, © 2016

See weather overviewHow to use our weather pages